Location: Asheville, NC
(35.6000°N, 82.5500°W)
Time: 14:22:36
(UTC-05:00)

OTV 5 (USA 277) - Pass Details

Date: 05 January 2018
Orbit: 404 x 417 km, 43.0° (Epoch: 07 September)

Event Time Altitude Azimuth Distance (km) Brightness Sun altitude
Exits shadow 06:46:23 14° 320° (NW) 1,250 ? -10.9°
Maximum altitude 06:48:26 23° 8° (N) 902 ? -10.5°
Drops below altitude 10° 06:51:09 10° 63° (ENE) 1,452 ? -9.9°
Sets 06:53:31 0° 79° (ENE) 2,312 ? -9.5°
